FW3688 Weather Reports


time (UTC)temp
C
wind
direction
speed
KPH
gust
KPH
rain 1hr
cm
rain 24hr
cm
rain mn
cm
humidity
%
barometer
mb
20191018084723 12 141 3.2 11.3 0.00 0.33 0.25 99 1004.3
20191018084222 12 173 0.0 9.7 0.00 0.33 0.25 99 1004.3
20191018083723 12 148 0.0 8.0 0.00 0.33 0.25 99 1004.4
20191018083223 12 151 0.0 9.7 0.00 0.33 0.25 99 1004.4
20191018081723 12 166 0.0 8.0 0.00 0.33 0.25 99 1004.5
20191018081222 12 188 0.0 9.7 0.00 0.36 0.25 99 1004.5
20191018080722 12 165 0.0 9.7 0.00 0.36 0.25 99 1004.5
20191018080223 12 170 1.6 11.3 0.00 0.36 0.25 99 1004.6
20191018074723 12 181 0.0 8.0 0.00 0.38 0.25 99 1004.8
20191018074223 11 171 0.0 0.0 0.00 0.41 0.25 99 1004.9
20191018073722 11 157 0.0 1.6 0.00 0.41 0.25 99 1005.0
20191018073223 11 159 0.0 8.0 0.00 0.41 0.25 99 1004.9
20191018071723 11 206 3.2 9.7 0.00 0.41 0.25 99 1005.0
20191018071223 11 191 3.2 19.3 0.00 0.43 0.25 99 1005.1
20191018070723 11 198 3.2 11.3 0.00 0.43 0.25 99 1005.2
20191018070223 11 197 0.0 9.7 0.00 0.43 0.25 99 1005.2
20191018064723 11 188 3.2 12.9 0.00 0.43 0.25 99 1005.3
20191018064223 11 201 4.8 20.9 0.00 0.43 0.25 99 1005.3
20191018063723 11 189 4.8 11.3 0.00 0.43 0.25 99 1005.4
20191018063223 11 180 1.6 12.9 0.00 0.46 0.25 99 1005.5
20191018061723 11 177 0.0 9.7 0.00 0.48 0.25 99 1005.3
20191018061223 10 178 0.0 0.0 0.00 0.48 0.25 99 1005.2
20191018060722 10 177 0.0 0.0 0.00 0.48 0.25 99 1005.2
20191018060224 10 175 0.0 0.0 0.00 0.48 0.25 99 1005.1
20191018054723 10 194 0.0 0.0 0.00 0.51 0.25 99 1005.1
20191018054223 10 202 0.0 0.0 0.00 0.51 0.25 98 1005.2
20191018053723 10 202 0.0 0.0 0.00 0.51 0.25 98 1005.2
20191018053223 11 204 0.0 1.6 0.00 0.51 0.25 98 1005.2
20191018051724 11 218 0.0 4.8 0.00 0.51 0.25 99 1005.5
20191018051224 11 226 0.0 8.0 0.00 0.51 0.25 99 1005.6
20191018050723 11 202 3.2 9.7 0.00 0.51 0.25 99 1005.5
20191018050223 11 193 3.2 16.1 0.00 0.51 0.25 99 1005.6
20191018044724 11 207 0.0 8.0 0.00 0.51 0.25 99 1005.7
20191018044224 11 192 1.6 9.7 0.00 0.51 0.25 99 1005.7
20191018043723 11 180 0.0 1.6 0.00 0.51 0.25 99 1005.7
20191018043224 11 200 0.0 1.6 0.00 0.51 0.25 99 1005.8
20191018041723 11 207 0.0 0.0 0.00 0.51 0.25 99 1006.0
20191018041224 11 213 0.0 0.0 0.00 0.51 0.25 99 1006.0
20191018040724 11 206 0.0 0.0 0.00 0.51 0.25 99 1005.9
20191018040223 11 203 0.0 0.0 0.00 0.51 0.25 99 1006.1
20191018034723 11 175 0.0 0.0 0.00 0.53 0.25 99 1006.1
20191018034223 11 174 0.0 0.0 0.00 0.53 0.25 99 1006.2
20191018033724 11 169 0.0 0.0 0.00 0.56 0.25 99 1006.2
20191018033224 11 169 0.0 0.0 0.00 0.56 0.25 99 1006.1
20191018031724 10 194 0.0 0.0 0.00 0.56 0.25 98 1006.1
20191018031224 10 195 0.0 0.0 0.00 0.56 0.25 98 1006.2
20191018030723 10 189 0.0 0.0 0.00 0.56 0.25 98 1006.1
20191018030224 10 190 0.0 0.0 0.00 0.56 0.25 98 1006.2
20191018024724 11 157 0.0 0.0 0.00 0.58 0.25 98 1006.2
20191018024224 11 157 0.0 0.0 0.00 0.58 0.25 98 1006.2
20191018023725 11 130 0.0 0.0 0.03 0.58 0.25 98 1006.2
20191018023223 11 130 0.0 0.0 0.03 0.58 0.25 98 1006.1
20191018021724 11 130 0.0 0.0 0.03 0.61 0.25 98 1006.2
20191018021224 11 130 0.0 0.0 0.03 0.61 0.25 98 1006.2
20191018020724 11 126 0.0 0.0 0.03 0.61 0.25 98 1006.1
20191018020224 11 134 0.0 0.0 0.03 0.61 0.25 98 1006.2
20191018014724 11 128 0.0 0.0 0.05 0.61 0.25 98 1006.4
20191018014223 11 123 0.0 0.0 0.05 0.61 0.25 98 1006.6
20191018013724 11 123 0.0 0.0 0.05 0.61 0.23 98 1006.6
20191018013223 11 134 0.0 1.6 0.05 0.61 0.23 98 1006.6
20191018011724 11 120 0.0 3.2 0.05 0.61 0.23 98 1006.7
20191018011224 11 116 0.0 1.6 0.05 0.61 0.23 98 1006.7
20191018010724 11 126 0.0 1.6 0.05 0.61 0.23 98 1006.9
20191018010224 11 132 0.0 4.8 0.08 0.61 0.23 98 1007.0
20191018004724 11 138 0.0 0.0 0.10 0.61 0.23 98 1007.2
20191018004224 11 138 0.0 3.2 0.13 0.61 0.23 98 1007.3
20191018003724 11 143 0.0 0.0 0.13 0.61 0.20 98 1007.5
20191018003225 11 168 0.0 3.2 0.15 0.61 0.20 98 1007.5
20191018001724 11 179 0.0 1.6 0.15 0.61 0.18 98 1007.6
20191018001225 11 172 0.0 1.6 0.15 0.61 0.18 98 1007.6
20191018000724 11 171 0.0 0.0 0.15 0.61 0.18 98 1007.6
20191018000224 11 169 0.0 0.0 0.15 0.58 0.15 98 1007.7
20191017234724 11 182 0.0 3.2 0.13 0.53 0.13 98 1007.7
20191017234224 11 177 0.0 4.8 0.10 0.51 0.10 98 1007.8
20191017233724 11 184 0.0 0.0 0.08 0.51 0.08 98 1007.8
20191017233224 11 167 0.0 8.0 0.05 0.48 0.05 98 1007.8
20191017231726 11 174 0.0 3.2 0.03 0.43 0.03 98 1007.9
20191017231224 11 141 0.0 4.8 0.03 0.43 0.03 98 1007.9
20191017230724 11 136 0.0 4.8 0.03 0.43 0.03 98 1007.9
20191017230225 11 143 0.0 4.8 0.03 0.43 0.03 98 1007.9
20191017224724 11 124 0.0 0.0 0.00 0.43 0.00 98 1007.9
20191017224225 10 142 0.0 0.0 0.00 0.43 0.00 98 1007.9
20191017223724 10 142 0.0 0.0 0.00 0.43 0.00 98 1008.1
20191017223224 10 145 0.0 0.0 0.00 0.43 0.00 98 1008.1
20191017221724 10 145 0.0 0.0 0.00 0.43 0.00 98 1008.3
20191017221225 10 135 0.0 0.0 0.00 0.43 0.00 98 1008.3
20191017220725 10 126 0.0 0.0 0.00 0.43 0.00 98 1008.1
20191017220224 10 126 0.0 4.8 0.00 0.43 0.00 97 1008.1
20191017214724 10 128 0.0 0.0 0.00 0.43 0.43 97 1008.4
20191017214225 10 130 0.0 0.0 0.00 0.43 0.43 97 1008.5
20191017213725 10 178 0.0 0.0 0.00 0.43 0.43 97 1008.7
20191017213225 10 178 0.0 0.0 0.00 0.43 0.43 97 1008.7
20191017211725 10 179 0.0 0.0 0.00 0.43 0.43 97 1008.9
20191017211225 10 179 0.0 0.0 0.00 0.43 0.43 97 1009.0
20191017210725 10 179 0.0 0.0 0.00 0.43 0.43 97 1009.0
20191017210225 10 179 0.0 0.0 0.00 0.43 0.43 97 1009.0
20191017204725 10 179 0.0 0.0 0.00 0.43 0.43 97 1009.1
20191017204225 10 179 0.0 0.0 0.00 0.43 0.43 96 1009.0
20191017203725 10 181 0.0 0.0 0.00 0.43 0.43 96 1009.1
20191017203225 10 181 0.0 0.0 0.00 0.43 0.43 96 1009.2
20191017201727 10 181 0.0 0.0 0.00 0.43 0.43 96 1009.3
20191017201225 10 181 0.0 0.0 0.00 0.43 0.43 96 1009.3
20191017200725 10 181 0.0 0.0 0.00 0.43 0.43 96 1009.3
20191017200225 10 181 0.0 0.0 0.00 0.43 0.43 96 1009.3
20191017194725 10 181 0.0 0.0 0.00 0.43 0.43 96 1009.0
20191017194225 10 181 0.0 0.0 0.00 0.43 0.43 96 1009.1
20191017193725 11 181 0.0 0.0 0.00 0.43 0.43 96 1009.1
20191017193226 11 182 0.0 0.0 0.00 0.43 0.43 96 1008.9
20191017191725 11 181 0.0 0.0 0.00 0.43 0.43 96 1009.3
20191017191226 11 182 0.0 0.0 0.00 0.43 0.43 96 1009.3
20191017190725 11 182 0.0 0.0 0.00 0.43 0.43 96 1009.3
20191017190226 11 183 0.0 0.0 0.00 0.43 0.43 96 1009.3
20191017184725 11 207 0.0 0.0 0.00 0.43 0.43 96 1009.3
20191017184226 11 211 0.0 0.0 0.00 0.43 0.43 96 1009.4
20191017183725 11 211 0.0 0.0 0.00 0.43 0.43 96 1009.4
20191017183226 11 211 0.0 0.0 0.00 0.43 0.43 96 1009.3
20191017181725 11 211 0.0 0.0 0.00 0.43 0.43 96 1009.2
20191017181225 12 211 0.0 0.0 0.00 0.43 0.43 95 1009.2
20191017180725 12 211 0.0 0.0 0.00 0.43 0.43 95 1009.1
20191017180226 12 211 0.0 0.0 0.00 0.43 0.43 95 1009.2
20191017174725 12 214 0.0 0.0 0.00 0.43 0.43 95 1009.2
20191017174225 12 214 0.0 0.0 0.00 0.43 0.43 95 1009.3
20191017173725 12 215 0.0 0.0 0.00 0.43 0.43 95 1009.4
20191017173225 12 215 0.0 0.0 0.00 0.43 0.43 95 1009.4
20191017171726 12 216 0.0 0.0 0.00 0.43 0.43 94 1009.4
20191017171227 12 216 0.0 0.0 0.00 0.43 0.43 94 1009.3
20191017170725 12 216 0.0 0.0 0.00 0.43 0.43 94 1009.2
20191017170225 12 217 0.0 0.0 0.00 0.43 0.43 94 1009.3
20191017164726 12 230 0.0 0.0 0.00 0.43 0.43 93 1009.2
20191017164226 12 231 0.0 0.0 0.00 0.43 0.43 93 1009.2
20191017163726 12 230 0.0 0.0 0.00 0.43 0.43 93 1009.2
20191017163226 12 231 0.0 0.0 0.00 0.43 0.43 93 1009.2
20191017161728 12 243 0.0 3.2 0.00 0.43 0.43 92 1009.1
20191017161226 12 238 3.2 8.0 0.00 0.43 0.43 92 1009.0
20191017160726 12 242 1.6 8.0 0.00 0.43 0.43 92 1009.0
20191017160226 12 253 1.6 8.0 0.00 0.43 0.43 92 1008.9
20191017154726 13 229 3.2 11.3 0.00 0.43 0.43 91 1009.0
20191017154226 13 231 3.2 12.9 0.00 0.43 0.43 91 1009.0
20191017153726 13 243 4.8 14.5 0.00 0.43 0.43 91 1009.0
20191017153226 13 248 6.4 14.5 0.00 0.43 0.43 91 1009.0
20191017151725 13 243 4.8 12.9 0.00 0.43 0.43 90 1008.9
20191017151226 13 222 8.0 12.9 0.00 0.43 0.43 90 1008.9
20191017150726 13 243 8.0 14.5 0.00 0.43 0.43 90 1008.9
20191017150226 13 251 4.8 12.9 0.00 0.43 0.43 89 1008.8
20191017144726 13 250 6.4 16.1 0.00 0.43 0.43 89 1008.7
20191017144227 13 236 4.8 12.9 0.00 0.43 0.43 89 1008.7
20191017143726 13 247 4.8 11.3 0.00 0.43 0.43 89 1008.7
20191017143226 14 241 4.8 16.1 0.00 0.43 0.43 89 1008.6
20191017141729 14 222 3.2 12.9 0.00 0.43 0.43 89 1008.5
20191017141227 14 240 6.4 14.5 0.00 0.43 0.43 89 1008.6
20191017140726 14 240 8.0 14.5 0.00 0.43 0.43 90 1008.6
20191017140226 14 250 4.8 12.9 0.03 0.43 0.43 90 1008.5
20191017134726 14 250 4.8 9.7 0.03 0.43 0.43 91 1008.4
20191017134226 15 228 3.2 9.7 0.03 0.43 0.43 91 1008.3
20191017133726 15 250 6.4 11.3 0.03 0.43 0.43 93 1008.3
20191017133226 15 211 8.0 12.9 0.03 0.43 0.43 93 1008.2
20191017131726 14 214 4.8 9.7 0.03 0.43 0.43 95 1008.1
20191017131226 13 216 4.8 9.7 0.03 0.43 0.43 96 1008.1
20191017130726 13 250 1.6 9.7 0.03 0.43 0.43 96 1008.0
20191017130226 13 208 4.8 9.7 0.00 0.41 0.41 97 1008.0
20191017124727 13 210 3.2 11.3 0.00 0.41 0.41 97 1008.1
20191017124227 13 223 6.4 11.3 0.00 0.41 0.41 97 1008.1
20191017123726 13 218 4.8 11.3 0.00 0.41 0.41 97 1008.1
20191017123226 13 236 4.8 14.5 0.00 0.41 0.41 98 1008.0
20191017121729 13 251 9.7 19.3 0.00 0.41 0.41 98 1007.9
20191017121227 13 249 4.8 11.3 0.00 0.41 0.41 98 1007.9
20191017120727 13 255 1.6 12.9 0.00 0.41 0.41 98 1007.9
20191017120227 13 257 1.6 11.3 0.00 0.41 0.41 98 1007.8
20191017114727 13 245 0.0 9.7 0.00 0.41 0.41 98 1007.7
20191017114226 13 250 3.2 12.9 0.00 0.41 0.41 98 1007.7
20191017113727 13 256 3.2 11.3 0.00 0.41 0.41 98 1007.6
20191017113227 13 255 0.0 4.8 0.00 0.41 0.41 99 1007.6
20191017111726 13 250 0.0 3.2 0.00 0.41 0.41 99 1007.5
20191017111226 13 267 0.0 1.6 0.00 0.41 0.41 99 1007.5
20191017110726 13 259 0.0 1.6 0.00 0.41 0.41 99 1007.5
20191017110227 13 273 1.6 11.3 0.00 0.41 0.41 99 1007.5
20191017104727 13 290 1.6 12.9 0.00 0.41 0.41 99 1007.3
20191017104227 13 261 1.6 8.0 0.00 0.41 0.41 99 1007.2
20191017103726 13 260 1.6 12.9 0.00 0.41 0.41 99 1007.2
20191017103226 13 259 3.2 12.9 0.00 0.43 0.41 99 1007.2
20191017101727 13 288 1.6 11.3 0.03 0.46 0.41 99 1007.1
20191017101227 13 262 8.0 19.3 0.03 0.46 0.41 99 1007.1
20191017100727 13 250 1.6 11.3 0.03 0.46 0.41 99 1007.1
20191017100227 13 255 3.2 12.9 0.03 0.46 0.41 99 1007.0
20191017094727 13 245 3.2 11.3 0.05 0.46 0.41 99 1006.7
20191017094227 13 237 1.6 19.3 0.05 0.46 0.41 99 1006.7
20191017093727 13 242 1.6 11.3 0.05 0.46 0.41 99 1006.7
20191017093227 13 236 3.2 12.9 0.05 0.46 0.41 99 1006.6
20191017091727 13 219 1.6 11.3 0.05 0.43 0.38 99 1006.5
20191017091227 13 207 3.2 11.3 0.05 0.43 0.38 99 1006.5
20191017090726 13 211 3.2 12.9 0.05 0.43 0.38 99 1006.4
20191017090227 13 212 3.2 16.1 0.05 0.43 0.38 99 1006.3